Location: Elefantenklo
(50.5820°N, 8.6700°E)
Time: 23:53:55
(UTC+02:00)

ISS - Visible Passes

Search period start: 26 May 2018 00:00
Search period end: 05 June 2018 00:00
Orbit: 402 x 407 km, 51.6° (Epoch: 26 May)

Date Brightness Start Highest point End Pass type
(mag) Time Alt. Az. Time Alt. Az. Time Alt. Az.
26 May -4.0 01:13:41 10° WNW 01:16:58 76° SSW 01:17:16 67° SE visible
26 May -3.7 22:44:52 10° W 22:48:10 77° N 22:51:26 10° E visible
27 May -3.9 00:21:27 10° WNW 00:24:45 85° NNE 00:26:26 26° E visible
27 May -1.7 01:58:05 10° W 01:59:03 17° W 01:59:03 17° W visible
27 May -3.7 23:29:13 10° W 23:32:29 74° N 23:35:42 10° E visible
28 May -3.2 01:05:45 10° W 01:08:19 41° WSW 01:08:19 41° WSW visible
28 May -3.5 22:36:56 10° W 22:40:12 71° N 22:43:29 10° E visible
29 May -3.9 00:13:28 10° WNW 00:16:44 68° SSW 00:17:38 42° SE visible
29 May -3.9 23:21:13 10° WNW 23:24:30 89° S 23:27:00 16° ESE visible
30 May -2.2 00:57:53 10° W 00:59:38 22° WSW 00:59:38 22° WSW visible
30 May -3.7 22:28:55 10° W 22:32:12 77° N 22:35:29 10° E visible
31 May -3.4 00:05:29 10° W 00:08:35 41° SSW 00:09:00 39° S visible
31 May -3.8 23:13:08 10° WNW 23:16:23 60° SSW 23:18:25 20° SE visible
01 Jun -1.4 00:50:22 10° WSW 00:51:03 13° WSW 00:51:03 13° WSW visible
01 Jun -3.9 22:20:50 10° WNW 22:24:07 82° SSW 22:27:23 10° ESE visible
01 Jun -2.5 23:57:36 10° W 00:00:17 24° SW 00:00:29 23° SSW visible
02 Jun -3.0 23:05:06 10° W 23:08:08 36° SSW 23:09:57 19° SSE visible
03 Jun -3.5 22:12:42 10° WNW 22:15:55 53° SSW 22:19:06 10° SE visible
03 Jun -1.6 23:50:14 10° WSW 23:51:50 13° SW 23:52:04 13° SW visible
04 Jun -2.1 22:57:13 10° W 22:59:44 20° SW 23:01:34 14° S visible
